Regional Weather Roundup
Issued by NWS

Home | Current Version | Previous Version | Graphics & Text | Print | Product List | Glossary Off
Versions: 1 2 3 4 5 6 7 8 9 10 11 12 13 14 15 16 17 18 19 20 21 22 23 24 25 26 27 28 29 30 31 32 33 34 35 36 37 38 39 40 41 42 43 44 45 46 47 48 49 50

000
ASUS43 KOAX 150010
RWRNE

WEATHER ROUNDUP FOR NEBRASKA
NATIONAL WEATHER SERVICE OMAHA NE
600 PM CST THU DEC 14 2017

NOTES: SATELLITE DATA IS BEING USED TO AUGMENT CLOUD COVER ABOVE
       12000 FEET.
       "FAIR" INDICATES FEW OR NO CLOUDS BELOW 12,000 FEET WITH NO
       SIGNIFICANT WEATHER AND/OR OBSTRUCTIONS TO VISIBILITY.


NEZ001>004-019>022-054>056-150100-
NEBRASKA PANHANDLE

CITY           SKY/WX    TMP DP  RH WIND       PRES   REMARKS
SCOTTSBLUFF    CLEAR     30  19  63 NW10      30.23R WCI  21
6HR MIN TEMP:  30; 6HR MAX TEMP:  36; 6HR PCP: TRACE;

ALLIANCE       CLOUDY    29  22  75 N7        30.20R WCI  22
6HR MIN TEMP:  29; 6HR MAX TEMP:  36; 6HR PCP: TRACE;

CHADRON        CLOUDY    32  19  58 NW9       30.23R WCI  24
6HR MIN TEMP:  32; 6HR MAX TEMP:  37; 6HR PCP: TRACE;

GORDON         MOCLDY    29  23  78 N8        30.18S WCI  21
6HR MIN TEMP:  29; 6HR MAX TEMP:  33;

KIMBALL        PTCLDY    28  18  66 N10       30.20S WCI  19
SIDNEY         CLOUDY    32  16  51 N16G28    30.21R WCI  21
6HR MIN TEMP:  32; 6HR MAX TEMP:  39; 6HR PCP: TRACE;

$$

NEZ057>060-069>072-079>082-150100-
SOUTHWEST NEBRASKA

CITY           SKY/WX    TMP DP  RH WIND       PRES   REMARKS
NORTH PLATTE   CLOUDY    35  25  66 NW15G22   30.19R WCI  25
6HR MIN TEMP:  35; 6HR MAX TEMP:  42; 6HR PCP: TRACE;

IMPERIAL       CLOUDY    34  24  67 NW13      30.21R WCI  25
6HR MIN TEMP:  33; 6HR MAX TEMP:  45; 6HR PCP: TRACE;

LEXINGTON      CLOUDY    37  28  69 NW13      30.17R WCI  29
MCCOOK         CLOUDY    37  23  56 NW21G28   30.19R WCI  26
6HR MIN TEMP:  36; 6HR MAX TEMP:  43;

OGALLALA       CLOUDY    36  24  61 N12       30.20S WCI  27
$$

NEZ005>010-023>029-035>040-094-150100-
NORTH CENTRAL NEBRASKA

CITY           SKY/WX    TMP DP  RH WIND       PRES   REMARKS
VALENTINE      CLOUDY    33  29  85 NW14      30.18R WCI  23
6HR MIN TEMP:  33; 6HR MAX TEMP:  35; 6HR PCP:  0.02;

AINSWORTH      FLURRIES  32  30  94 N22       30.17R WCI  19
BROKEN BOW     CLOUDY    34  30  85 N16       30.16R WCI  24
6HR MIN TEMP:  33; 6HR MAX TEMP:  37; 6HR PCP:  0.01;

O`NEILL        LGT RAIN  33  32  96 N17G23    30.14R WCI  22
ORD            CLOUDY    34  31  88 N17G25    30.14R WCI  23
6HR MIN TEMP:  34; 6HR MAX TEMP:  38; 6HR PCP:  0.01;

THEDFORD       LGT SNOW  32  30  92 NW14G20   30.18R WCI  22
$$

NEZ041-046>049-061>064-073>077-083>087-150100-
SOUTH CENTRAL NEBRASKA

CITY           SKY/WX    TMP DP  RH WIND       PRES   REMARKS
GRAND ISLAND   CLOUDY    35  33  92 N12       30.14R WCI  27
6HR MIN TEMP:  35; 6HR MAX TEMP:  38; 6HR PCP:  0.04;

AURORA         CLOUDY    35  33  90 NW15      30.13R WCI  26
HASTINGS       CLOUDY    35  31  85 N18       30.14R WCI  24
6HR MIN TEMP:  35; 6HR MAX TEMP:  39; 6HR PCP:  0.02;

HEBRON         CLOUDY    38  36  92 NW5       30.13R WCI  34
HOLDREGE       CLOUDY    36  29  74 NW14      30.16R WCI  27
KEARNEY        CLOUDY    35  31  85 NW13      30.16R WCI  26
YORK           CLOUDY    36  36 100 N7        30.12R WCI  30
$$

NEZ011>018-030>034-042>045-150100-
NORTHEAST NEBRASKA

CITY           SKY/WX    TMP DP  RH WIND       PRES   REMARKS
NORFOLK        CLOUDY    35  31  85 NW10      30.08R WCI  27
6HR MIN TEMP:  34; 6HR MAX TEMP:  38; 6HR PCP: TRACE;

ALBION         CLOUDY    36  33  89 NW9       30.12R WCI  29
BLAIR          CLOUDY    37  27  65 N5        30.08R WCI  34
COLUMBUS       MIX PCPN  36  31  82 NW12      30.12R WCI  28
FREMONT        CLOUDY    38  26  62 NW5       30.11R WCI  34
TEKAMAH        CLOUDY    37  24  59 NW7       30.09R WCI  32
6HR MIN TEMP:  37; 6HR MAX TEMP:  41;

WAYNE          CLOUDY    36  32  87 NW10      30.09R WCI  28
$$

NEZ050>053-065>068-078-088>093-150100-
SOUTHEAST NEBRASKA

CITY           SKY/WX    TMP DP  RH WIND       PRES   REMARKS
LINCOLN        CLOUDY    37  33  85 NW8       30.13R WCI  31
6HR MIN TEMP:  37; 6HR MAX TEMP:  43; 6HR PCP: TRACE;

OMAHA EPPLEY   CLOUDY    38  24  57 N3        30.10R
6HR MIN TEMP:  38; 6HR MAX TEMP:  42;

BEATRICE       LGT RAIN  36  34  93 NW9       30.12R WCI  29
FALLS CITY     CLOUDY    40  25  55 N6        30.09R
6HR MIN TEMP:  40; 6HR MAX TEMP:  43;

NEBRASKA CITY  CLOUDY    39  30  68 NW9       30.09R WCI  33
PLATTSMOUTH    CLOUDY    38  28  67 NW3       30.09R
$$

NEZ044-045-051>053-067-150100-
OMAHA AREA

CITY           SKY/WX    TMP DP  RH WIND       PRES   REMARKS
OMAHA EPPLEY   CLOUDY    38  24  57 N3        30.10R
6HR MIN TEMP:  38; 6HR MAX TEMP:  42;

BLAIR          CLOUDY    37  27  65 N5        30.08R WCI  34
FREMONT        CLOUDY    38  26  62 NW5       30.11R WCI  34
MILLARD        CLOUDY    41  28  59 NW5       30.10R
OFFUTT AFB     CLOUDY    38  24  57 N6        30.09R WCI  34
PLATTSMOUTH    CLOUDY    38  28  67 NW3       30.09R
WAHOO          CLOUDY    39  28  66 NW7       30.10R WCI  34
$$



USA.gov is the U.S. government's official web portal to all federal, state and local government web resources and services.